This is the latest recevied weather packets stored in our database for station/object M7PDA-1. If no packets are shown the sender has not sent any weather packets the latest 10 day(s).
| Time | Temp. | Humidity | Pressure | Rain* | Wind** | Luminosity | Snow |
|---|---|---|---|---|---|---|---|
| 1777287560 | 16.11° C | 67% | 1028.1 hPa | - | - | - | - |
| 1777286660 | 16.67° C | 66% | 1028 hPa | - | - | - | - |
| 1777285759 | 16.11° C | 68% | 1028 hPa | - | - | - | - |
| 1777284858 | 15.56° C | 69% | 1028.1 hPa | - | - | - | - |
| 1777283957 | 14.44° C | 72% | 1028.3 hPa | - | - | - | - |
| 1777283056 | 14.44° C | 73% | 1028.2 hPa | - | - | - | - |
| 1777282156 | 12.78° C | 76% | 1028.2 hPa | - | - | - | - |
| 1777281255 | 12.22° C | 78% | 1028.3 hPa | - | - | - | - |
| 1777280354 | 11.67° C | 78% | 1028.1 hPa | - | - | - | - |
| 1777279453 | 11.11° C | 79% | 1028.2 hPa | - | - | - | - |
| 1777278553 | 11.11° C | 80% | 1028.2 hPa | - | - | - | - |
| 1777277652 | 10° C | 81% | 1028.3 hPa | - | - | - | - |
| 1777276751 | 10.56° C | 81% | 1028.1 hPa | - | - | - | - |
| 1777275850 | 10° C | 82% | 1028 hPa | - | - | - | - |
| 1777274951 | 9.44° C | 82% | 1028.1 hPa | - | - | - | - |
| 1777274049 | 10° C | 83% | 1028.1 hPa | - | - | - | - |
| 1777273148 | 9.44° C | 83% | 1027.9 hPa | - | - | - | - |
| 1777272246 | 9.44° C | 84% | 1028 hPa | - | - | - | - |
| 1777271345 | 9.44° C | 84% | 1027.9 hPa | - | - | - | - |
| 1777270444 | 8.89° C | 84% | 1027.8 hPa | - | - | - | - |
| 1777269544 | 8.89° C | 84% | 1027.8 hPa | - | - | - | - |
| 1777268643 | 8.89° C | 84% | 1027.7 hPa | - | - | - | - |
| 1777267742 | 8.89° C | 84% | 1027.5 hPa | - | - | - | - |
| 1777266841 | 8.89° C | 85% | 1027.3 hPa | - | - | - | - |
| 1777265941 | 8.89° C | 85% | 1027.3 hPa | - | - | - | - |
* Rain since midnight (hover to see other rain measurements)
** Current wind speed in m/s (hover to see current wind gust speed)